| time (UTC) | temp C | wind direction | speed KPH | gust KPH | rain 1hr cm | rain 24hr cm | rain mn cm | humidity % | barometer mb |
| 20260506231913 | 6 | 94 | 3.2 | 4.8 | 0.00 | 1.98 | 1.98 | 95 | 1001.4 |
| 20260506231411 | 6 | 91 | 3.2 | 11.3 | 0.00 | 1.98 | 1.98 | 95 | 1001.6 |
| 20260506230908 | 6 | 64 | 9.7 | 9.7 | 0.00 | 1.98 | 1.98 | 95 | 1001.5 |
| 20260506230405 | 6 | 327 | 4.8 | 8.0 | 0.00 | 1.98 | 1.98 | 95 | 1001.6 |
| 20260506225901 | 6 | 348 | 8.0 | 8.0 | 0.00 | 1.98 | 1.98 | 95 | 1001.5 |
| 20260506225359 | 6 | 329 | 8.0 | 9.7 | 0.00 | 1.98 | 1.98 | 95 | 1001.3 |
| 20260506224855 | 6 | 67 | 9.7 | 9.7 | 0.00 | 1.98 | 1.98 | 94 | 1001.5 |
| 20260506224353 | 6 | 81 | 6.4 | 6.4 | 0.00 | 1.98 | 1.98 | 94 | 1001.4 |
| 20260506223849 | 6 | 15 | 3.2 | 8.0 | 0.00 | 1.98 | 1.98 | 94 | 1001.2 |
| 20260506223344 | 6 | 348 | 4.8 | 8.0 | 0.00 | 1.98 | 1.98 | 94 | 1001.3 |
| 20260506222842 | 6 | 221 | 4.8 | 6.4 | 0.00 | 1.98 | 1.98 | 94 | 1001.1 |
| 20260506222337 | 6 | 253 | 4.8 | 8.0 | 0.00 | 1.98 | 1.98 | 95 | 1001.1 |
| 20260506221835 | 6 | 252 | 3.2 | 9.7 | 0.00 | 1.98 | 1.98 | 95 | 1001.0 |
| 20260506221332 | 6 | 347 | 8.0 | 14.5 | 0.00 | 1.98 | 1.98 | 95 | 1000.9 |
| 20260506220830 | 6 | 335 | 3.2 | 9.7 | 0.00 | 1.98 | 1.98 | 95 | 1001.0 |
| 20260506220325 | 7 | 97 | 3.2 | 11.3 | 0.00 | 1.98 | 1.98 | 95 | 1000.7 |
| 20260506215822 | 7 | 66 | 0.0 | 4.8 | 0.00 | 1.98 | 1.98 | 95 | 1001.0 |
| 20260506215318 | 7 | 299 | 8.0 | 20.9 | 0.00 | 1.98 | 1.98 | 95 | 1000.7 |
| 20260506214814 | 7 | 9 | 1.6 | 17.7 | 0.00 | 1.98 | 1.98 | 95 | 1000.8 |
| 20260506214311 | 7 | 357 | 6.4 | 14.5 | 0.00 | 1.98 | 1.98 | 96 | 1000.9 |
| 20260506213809 | 7 | 260 | 3.2 | 3.2 | 0.00 | 1.98 | 1.98 | 96 | 1000.9 |
| 20260506213306 | 7 | 39 | 4.8 | 6.4 | 0.00 | 1.98 | 1.98 | 96 | 1000.8 |
| 20260506212803 | 7 | 331 | 3.2 | 8.0 | 0.00 | 1.98 | 1.98 | 96 | 1000.8 |
| 20260506212259 | 7 | 10 | 4.8 | 6.4 | 0.05 | 1.98 | 1.98 | 96 | 1000.8 |
| 20260506211754 | 7 | 314 | 4.8 | 6.4 | 0.05 | 1.98 | 1.98 | 96 | 1000.7 |
| 20260506211251 | 7 | 3 | 3.2 | 8.0 | 0.00 | 1.96 | 1.96 | 96 | 1000.7 |
| 20260506210748 | 7 | 330 | 12.9 | 12.9 | 0.05 | 1.96 | 1.96 | 96 | 1000.7 |
| 20260506210244 | 7 | 317 | 1.6 | 11.3 | 0.18 | 1.96 | 1.96 | 96 | 1000.7 |
| 20260506205742 | 7 | 303 | 3.2 | 9.7 | 0.13 | 1.93 | 1.93 | 96 | 1000.6 |
| 20260506205237 | 7 | 295 | 3.2 | 8.0 | 0.48 | 1.93 | 1.93 | 95 | 1000.6 |
| 20260506204734 | 7 | 338 | 1.6 | 11.3 | 0.43 | 1.91 | 1.91 | 95 | 1000.6 |
| 20260506204232 | 7 | 338 | 6.4 | 16.1 | 0.13 | 1.85 | 1.85 | 95 | 1000.8 |
| 20260506203731 | 7 | 12 | 3.2 | 19.3 | 0.13 | 1.83 | 1.83 | 95 | 1000.7 |
| 20260506203227 | 7 | 334 | 9.7 | 16.1 | 0.13 | 1.83 | 1.83 | 95 | 1000.6 |
| 20260506202725 | 7 | 329 | 9.7 | 17.7 | 0.13 | 1.83 | 1.83 | 95 | 1000.5 |
| 20260506202221 | 7 | 187 | 3.2 | 12.9 | 0.05 | 1.80 | 1.80 | 95 | 1000.2 |
| 20260506201718 | 7 | 358 | 8.0 | 19.3 | 0.05 | 1.80 | 1.80 | 95 | 1000.4 |
| 20260506201215 | 7 | 6 | 4.8 | 12.9 | 0.05 | 1.80 | 1.80 | 95 | 1000.6 |
| 20260506200711 | 7 | 27 | 12.9 | 19.3 | 0.00 | 1.78 | 1.78 | 95 | 1000.5 |
| 20260506200208 | 7 | 2 | 4.8 | 11.3 | 0.00 | 1.78 | 1.78 | 95 | 1000.5 |
| 20260506195704 | 7 | 303 | 11.3 | 11.3 | 0.00 | 1.78 | 1.78 | 95 | 1000.5 |
| 20260506195201 | 7 | 46 | 8.0 | 9.7 | 0.13 | 1.78 | 1.78 | 95 | 1000.7 |
| 20260506194658 | 7 | 54 | 6.4 | 11.3 | 0.13 | 1.78 | 1.78 | 95 | 1000.6 |
| 20260506194154 | 7 | 334 | 4.8 | 11.3 | 0.05 | 1.78 | 1.78 | 95 | 1000.4 |
| 20260506193652 | 7 | 320 | 6.4 | 12.9 | 0.00 | 1.75 | 1.75 | 95 | 1000.6 |
| 20260506193149 | 8 | 279 | 8.0 | 8.0 | 0.00 | 1.75 | 1.75 | 95 | 1000.4 |
| 20260506192646 | 8 | 341 | 6.4 | 17.7 | 0.00 | 1.75 | 1.75 | 94 | 1000.6 |
| 20260506192142 | 8 | 70 | 3.2 | 9.7 | 0.00 | 1.75 | 1.75 | 94 | 1000.5 |
| 20260506191639 | 8 | 337 | 1.6 | 4.8 | 0.00 | 1.75 | 1.75 | 95 | 1000.5 |
| 20260506191135 | 8 | 40 | 9.7 | 11.3 | 0.00 | 1.75 | 1.75 | 94 | 1000.6 |
| 20260506190632 | 8 | 349 | 4.8 | 14.5 | 0.00 | 1.75 | 1.75 | 95 | 1000.6 |
| 20260506190129 | 8 | 305 | 6.4 | 12.9 | 0.00 | 1.75 | 1.75 | 95 | 1000.6 |
| 20260506185626 | 7 | 293 | 6.4 | 14.5 | 0.00 | 1.75 | 1.75 | 95 | 1000.5 |
| 20260506185122 | 7 | 104 | 3.2 | 14.5 | 0.00 | 1.75 | 1.75 | 96 | 1000.6 |
| 20260506184620 | 7 | 350 | 6.4 | 24.1 | 0.00 | 1.75 | 1.75 | 95 | 1000.7 |
| 20260506184117 | 7 | 321 | 3.2 | 17.7 | 0.05 | 1.75 | 1.75 | 96 | 1000.7 |
| 20260506183614 | 8 | 23 | 8.0 | 11.3 | 0.05 | 1.75 | 1.75 | 97 | 1000.6 |
| 20260506183109 | 7 | 232 | 1.6 | 9.7 | 0.13 | 1.75 | 1.75 | 97 | 1000.9 |
| 20260506182607 | 7 | 79 | 4.8 | 11.3 | 0.18 | 1.75 | 1.75 | 97 | 1000.9 |
| 20260506182104 | 7 | 288 | 9.7 | 17.7 | 0.18 | 1.73 | 1.73 | 96 | 1001.0 |
| 20260506181602 | 7 | 215 | 1.6 | 8.0 | 0.18 | 1.70 | 1.70 | 96 | 1001.3 |
| 20260506181059 | 7 | 115 | 6.4 | 9.7 | 0.23 | 1.70 | 1.70 | 96 | 1001.0 |
| 20260506180555 | 7 | 316 | 4.8 | 6.4 | 0.18 | 1.68 | 1.68 | 96 | 1001.0 |
| 20260506180052 | 8 | 267 | 9.7 | 9.7 | 0.18 | 1.65 | 1.65 | 96 | 1000.9 |
| 20260506175548 | 8 | 88 | 4.8 | 12.9 | 0.13 | 1.65 | 1.65 | 96 | 1001.2 |
| 20260506175045 | 8 | 313 | 6.4 | 9.7 | 0.18 | 1.63 | 1.63 | 96 | 1001.2 |
| 20260506174544 | 8 | 286 | 6.4 | 16.1 | 0.18 | 1.63 | 1.63 | 96 | 1001.2 |
| 20260506174039 | 8 | 352 | 3.2 | 20.9 | 0.23 | 1.60 | 1.60 | 96 | 1001.1 |
| 20260506173537 | 8 | 0 | 6.4 | 19.3 | 0.30 | 1.60 | 1.60 | 95 | 1001.5 |
| 20260506173034 | 8 | 308 | 16.1 | 20.9 | 0.43 | 1.55 | 1.55 | 95 | 1001.2 |
| 20260506172531 | 8 | 343 | 9.7 | 16.1 | 0.48 | 1.55 | 1.55 | 95 | 1001.3 |
| 20260506172027 | 10 | 330 | 16.1 | 20.9 | 0.36 | 1.50 | 1.50 | 93 | 1001.3 |
| 20260506171525 | 10 | 151 | 3.2 | 6.4 | 0.18 | 1.45 | 1.45 | 94 | 1001.1 |
| 20260506171022 | 12 | 311 | 19.3 | 19.3 | 0.13 | 1.42 | 1.42 | 91 | 1000.9 |
| 20260506170520 | 13 | 53 | 4.8 | 6.4 | 0.23 | 1.42 | 1.42 | 96 | 1001.2 |
| 20260506170017 | 13 | 36 | 9.7 | 9.7 | 0.53 | 1.40 | 1.40 | 96 | 1001.0 |
| 20260506165515 | 13 | 40 | 3.2 | 6.4 | 0.84 | 1.37 | 1.37 | 96 | 1001.0 |
| 20260506165011 | 13 | 155 | 3.2 | 8.0 | 0.84 | 1.32 | 1.32 | 95 | 1001.0 |
| 20260506164508 | 13 | 103 | 1.6 | 6.4 | 0.36 | 1.22 | 1.22 | 96 | 1000.9 |
| 20260506164006 | 13 | 28 | 3.2 | 9.7 | 0.23 | 1.19 | 1.19 | 96 | 1001.0 |
| 20260506163501 | 13 | 28 | 3.2 | 8.0 | 0.23 | 1.17 | 1.17 | 96 | 1000.8 |
| 20260506162956 | 13 | 126 | 9.7 | 14.5 | 0.23 | 1.14 | 1.14 | 95 | 1000.9 |
| 20260506162454 | 13 | 131 | 12.9 | 12.9 | 0.23 | 1.12 | 1.12 | 95 | 1001.1 |
| 20260506161945 | 13 | 57 | 6.4 | 11.3 | 0.18 | 1.09 | 1.09 | 96 | 1001.1 |
| 20260506161443 | 13 | 120 | 12.9 | 16.1 | 0.18 | 1.07 | 1.07 | 95 | 1001.2 |
| 20260506160935 | 13 | 138 | 14.5 | 17.7 | 0.05 | 1.07 | 1.07 | 96 | 1001.4 |
| 20260506160432 | 13 | 59 | 16.1 | 20.9 | 0.05 | 1.04 | 1.04 | 96 | 1001.3 |
| 20260506155929 | 13 | 89 | 6.4 | 11.3 | 0.13 | 1.04 | 1.04 | 96 | 1001.4 |
| 20260506155426 | 12 | 115 | 12.9 | 25.7 | 0.13 | 1.04 | 1.04 | 96 | 1001.5 |
| 20260506153548 | 12 | 61 | 8.0 | 9.7 | 0.18 | 0.99 | 0.99 | 97 | 1001.8 |
| 20260506153046 | 12 | 107 | 4.8 | 12.9 | 0.13 | 0.97 | 0.97 | 97 | 1001.8 |
| 20260506152543 | 12 | 109 | 1.6 | 14.5 | 0.18 | 0.97 | 0.97 | 97 | 1002.0 |
| 20260506152041 | 12 | 56 | 9.7 | 14.5 | 0.18 | 0.94 | 0.94 | 98 | 1001.7 |
| 20260506151539 | 12 | 72 | 6.4 | 9.7 | 0.18 | 0.94 | 0.94 | 98 | 1001.9 |
| 20260506151035 | 12 | 116 | 11.3 | 22.5 | 0.13 | 0.91 | 0.91 | 98 | 1001.8 |
| 20260506150532 | 12 | 151 | 14.5 | 16.1 | 0.18 | 0.89 | 0.89 | 98 | 1002.1 |
| 20260506150029 | 12 | 7 | 0.0 | 17.7 | 0.13 | 0.89 | 0.89 | 99 | 1002.3 |
| 20260506145525 | 12 | 96 | 3.2 | 6.4 | 0.13 | 0.86 | 0.86 | 99 | 1002.3 |
| 20260506145023 | 11 | 65 | 3.2 | 8.0 | 0.13 | 0.86 | 0.86 | 99 | 1002.2 |
| 20260506144519 | 11 | 61 | 11.3 | 11.3 | 0.13 | 0.86 | 0.86 | 99 | 1002.2 |
| 20260506144017 | 11 | 345 | 0.0 | 8.0 | 0.18 | 0.84 | 0.84 | 98 | 1002.3 |
| 20260506143514 | 11 | 63 | 9.7 | 20.9 | 0.18 | 0.81 | 0.81 | 98 | 1001.9 |
| 20260506143013 | 11 | 44 | 6.4 | 11.3 | 0.18 | 0.81 | 0.81 | 98 | 1002.0 |
| 20260506142510 | 11 | 50 | 9.7 | 11.3 | 0.13 | 0.79 | 0.79 | 98 | 1002.3 |
| 20260506142008 | 11 | 66 | 11.3 | 12.9 | 0.13 | 0.79 | 0.79 | 98 | 1002.4 |
| 20260506141506 | 11 | 64 | 8.0 | 9.7 | 0.18 | 0.76 | 0.76 | 98 | 1002.6 |
| 20260506141004 | 11 | 71 | 6.4 | 9.7 | 0.13 | 0.74 | 0.74 | 98 | 1002.4 |
| 20260506140501 | 11 | 351 | 3.2 | 3.2 | 0.18 | 0.74 | 0.74 | 98 | 1002.7 |
| 20260506135957 | 11 | 52 | 8.0 | 8.0 | 0.13 | 0.71 | 0.71 | 98 | 1002.8 |
| 20260506135455 | 10 | 83 | 4.8 | 8.0 | 0.13 | 0.71 | 0.71 | 98 | 1002.6 |
| 20260506134951 | 11 | 75 | 6.4 | 9.7 | 0.13 | 0.71 | 0.71 | 98 | 1002.6 |
| 20260506134447 | 11 | 73 | 6.4 | 8.0 | 0.13 | 0.69 | 0.69 | 98 | 1002.8 |
| 20260506133944 | 11 | 72 | 3.2 | 3.2 | 0.13 | 0.69 | 0.69 | 98 | 1002.8 |
| 20260506133441 | 10 | 56 | 1.6 | 6.4 | 0.13 | 0.66 | 0.66 | 98 | 1002.9 |
| 20260506132938 | 10 | 69 | 6.4 | 8.0 | 0.18 | 0.66 | 0.66 | 98 | 1002.6 |
| 20260506132435 | 10 | 58 | 4.8 | 6.4 | 0.13 | 0.64 | 0.64 | 98 | 1002.4 |
| 20260506131932 | 10 | 64 | 6.4 | 6.4 | 0.18 | 0.64 | 0.64 | 98 | 1002.5 |
| 20260506131428 | 10 | 68 | 4.8 | 6.4 | 0.13 | 0.61 | 0.61 | 98 | 1002.6 |
| 20260506130925 | 11 | 69 | 8.0 | 9.7 | 0.18 | 0.61 | 0.61 | 98 | 1002.8 |
| 20260506130422 | 11 | 61 | 9.7 | 9.7 | 0.18 | 0.58 | 0.58 | 98 | 1002.8 |
| 20260506125920 | 11 | 70 | 6.4 | 9.7 | 0.13 | 0.56 | 0.56 | 98 | 1002.9 |
| 20260506125418 | 11 | 73 | 6.4 | 8.0 | 0.13 | 0.56 | 0.56 | 98 | 1003.2 |
| 20260506124916 | 11 | 57 | 3.2 | 3.2 | 0.18 | 0.56 | 0.56 | 98 | 1003.3 |
| 20260506124413 | 11 | 69 | 6.4 | 8.0 | 0.18 | 0.53 | 0.53 | 98 | 1003.0 |
| 20260506123911 | 11 | 55 | 0.0 | 1.6 | 0.05 | 0.51 | 0.51 | 98 | 1002.9 |
| 20260506123409 | 11 | 75 | 4.8 | 8.0 | 0.05 | 0.51 | 0.51 | 98 | 1003.0 |
| 20260506122906 | 11 | 263 | 0.0 | 3.2 | 0.05 | 0.51 | 0.51 | 98 | 1003.2 |
| 20260506122402 | 11 | 48 | 1.6 | 4.8 | 0.05 | 0.51 | 0.51 | 98 | 1003.1 |
| 20260506121901 | 11 | 274 | 3.2 | 3.2 | 0.18 | 0.51 | 0.51 | 98 | 1003.3 |
| 20260506121357 | 10 | 56 | 9.7 | 9.7 | 0.05 | 0.48 | 0.48 | 98 | 1002.9 |
| 20260506120854 | 11 | 283 | 3.2 | 4.8 | 0.00 | 0.46 | 0.46 | 98 | 1003.2 |
| 20260506120352 | 10 | 69 | 0.0 | 4.8 | 0.00 | 0.46 | 0.46 | 98 | 1003.2 |
| 20260506115849 | 10 | 308 | 0.0 | 3.2 | 0.00 | 0.46 | 0.46 | 98 | 1003.3 |
| 20260506115347 | 11 | 305 | 0.0 | 3.2 | 0.00 | 0.46 | 0.46 | 98 | 1003.2 |
| 20260506114845 | 10 | 91 | 3.2 | 4.8 | 0.00 | 0.46 | 0.46 | 99 | 1002.9 |
| 20260506114342 | 10 | 53 | 4.8 | 6.4 | 0.00 | 0.46 | 0.46 | 99 | 1003.0 |
| 20260506113841 | 10 | 83 | 3.2 | 4.8 | 0.00 | 0.46 | 0.46 | 99 | 1003.1 |
| 20260506113338 | 10 | 100 | 4.8 | 6.4 | 0.00 | 0.46 | 0.46 | 99 | 1003.2 |
| 20260506112835 | 10 | 75 | 6.4 | 6.4 | 0.00 | 0.46 | 0.46 | 99 | 1003.1 |
| 20260506112332 | 10 | 72 | 3.2 | 6.4 | 0.00 | 0.46 | 0.46 | 99 | 1003.3 |
| 20260506111829 | 10 | 128 | 1.6 | 4.8 | 0.00 | 0.46 | 0.46 | 99 | 1003.4 |
| 20260506111328 | 10 | 85 | 3.2 | 4.8 | 0.00 | 0.46 | 0.46 | 99 | 1003.0 |
| 20260506110825 | 10 | 86 | 3.2 | 4.8 | 0.00 | 0.46 | 0.46 | 99 | 1003.2 |
| 20260506110322 | 10 | 77 | 4.8 | 6.4 | 0.00 | 0.46 | 0.46 | 99 | 1002.9 |
| 20260506105819 | 10 | 100 | 3.2 | 4.8 | 0.00 | 0.46 | 0.46 | 99 | 1003.2 |
| 20260506105315 | 10 | 82 | 3.2 | 4.8 | 0.00 | 0.46 | 0.46 | 99 | 1003.2 |
| 20260506104812 | 10 | 74 | 4.8 | 6.4 | 0.00 | 0.46 | 0.46 | 99 | 1003.2 |
| 20260506104310 | 10 | 296 | 0.0 | 4.8 | 0.00 | 0.46 | 0.46 | 99 | 1003.3 |
| 20260506103808 | 10 | 291 | 3.2 | 3.2 | 0.00 | 0.46 | 0.46 | 99 | 1003.3 |
| 20260506103305 | 10 | 65 | 0.0 | 3.2 | 0.00 | 0.46 | 0.46 | 99 | 1003.1 |
| 20260506102802 | 10 | 63 | 4.8 | 6.4 | 0.00 | 0.46 | 0.46 | 99 | 1003.0 |
| 20260506102300 | 10 | 60 | 8.0 | 9.7 | 0.00 | 0.46 | 0.46 | 99 | 1003.0 |
| 20260506101757 | 10 | 86 | 3.2 | 4.8 | 0.00 | 0.46 | 0.46 | 99 | 1003.4 |
| 20260506101253 | 10 | 66 | 3.2 | 3.2 | 0.00 | 0.46 | 0.46 | 99 | 1003.7 |
| 20260506100751 | 10 | 305 | 0.0 | 3.2 | 0.00 | 0.46 | 0.46 | 99 | 1003.6 |
| 20260506100249 | 10 | 110 | 3.2 | 3.2 | 0.00 | 0.46 | 0.46 | 99 | 1003.1 |
| 20260506095748 | 10 | 72 | 4.8 | 6.4 | 0.00 | 0.46 | 0.46 | 99 | 1003.3 |
| 20260506095244 | 10 | 75 | 0.0 | 1.6 | 0.00 | 0.46 | 0.46 | 99 | 1003.2 |
| 20260506094740 | 10 | 56 | 1.6 | 3.2 | 0.00 | 0.46 | 0.46 | 99 | 1003.6 |
| 20260506094239 | 10 | 284 | 0.0 | 3.2 | 0.00 | 0.46 | 0.46 | 98 | 1003.2 |
| 20260506093737 | 10 | 280 | 1.6 | 3.2 | 0.00 | 0.46 | 0.46 | 98 | 1003.3 |
| 20260506093234 | 10 | 78 | 3.2 | 4.8 | 0.00 | 0.46 | 0.46 | 98 | 1003.4 |
| 20260506092732 | 10 | 48 | 3.2 | 4.8 | 0.00 | 0.46 | 0.46 | 98 | 1003.7 |
| 20260506092230 | 10 | 29 | 1.6 | 3.2 | 0.00 | 0.46 | 0.46 | 98 | 1003.6 |
| 20260506091727 | 10 | 99 | 3.2 | 3.2 | 0.00 | 0.46 | 0.46 | 98 | 1003.9 |
| 20260506091224 | 10 | 271 | 0.0 | 3.2 | 0.00 | 0.46 | 0.46 | 98 | 1003.7 |
| 20260506090722 | 10 | 69 | 1.6 | 3.2 | 0.00 | 0.46 | 0.46 | 98 | 1003.4 |
| 20260506090218 | 10 | 46 | 1.6 | 1.6 | 0.00 | 0.46 | 0.46 | 98 | 1003.6 |
| 20260506085715 | 10 | 118 | 0.0 | 3.2 | 0.00 | 0.46 | 0.46 | 98 | 1003.6 |
| 20260506085211 | 10 | 78 | 3.2 | 4.8 | 0.00 | 0.46 | 0.46 | 98 | 1003.8 |
| 20260506084708 | 10 | 92 | 3.2 | 4.8 | 0.00 | 0.46 | 0.46 | 98 | 1003.9 |
| 20260506084204 | 10 | 80 | 1.6 | 4.8 | 0.00 | 0.46 | 0.46 | 98 | 1004.0 |
| 20260506083701 | 10 | 79 | 1.6 | 4.8 | 0.00 | 0.46 | 0.46 | 98 | 1004.1 |
| 20260506083159 | 10 | 85 | 3.2 | 6.4 | 0.00 | 0.46 | 0.46 | 98 | 1004.2 |
| 20260506082656 | 10 | 279 | 4.8 | 4.8 | 0.00 | 0.46 | 0.46 | 98 | 1004.2 |
| 20260506082156 | 10 | 309 | 0.0 | 3.2 | 0.00 | 0.46 | 0.46 | 98 | 1003.7 |
| 20260506081655 | 10 | 326 | 1.6 | 1.6 | 0.00 | 0.46 | 0.46 | 98 | 1003.6 |
| 20260506081152 | 10 | 276 | 0.0 | 3.2 | 0.00 | 0.46 | 0.46 | 98 | 1003.6 |
| 20260506080650 | 10 | 63 | 0.0 | 1.6 | 0.00 | 0.46 | 0.46 | 98 | 1003.7 |
| 20260506080146 | 10 | 64 | 1.6 | 4.8 | 0.00 | 0.46 | 0.46 | 98 | 1003.4 |
| 20260506073130 | 11 | 70 | 6.4 | 8.0 | 0.00 | 0.46 | 0.46 | 98 | 1003.3 |
| 20260506072627 | 11 | 62 | 6.4 | 9.7 | 0.00 | 0.46 | 0.46 | 98 | 1003.4 |
| 20260506072125 | 11 | 60 | 4.8 | 9.7 | 0.00 | 0.46 | 0.46 | 98 | 1003.6 |
| 20260506071622 | 11 | 55 | 4.8 | 6.4 | 0.00 | 0.46 | 0.46 | 98 | 1004.0 |
| 20260506071120 | 11 | 65 | 8.0 | 8.0 | 0.00 | 0.46 | 0.46 | 98 | 1003.6 |
| 20260506070616 | 11 | 312 | 3.2 | 3.2 | 0.00 | 0.46 | 0.46 | 97 | 1004.0 |
| 20260506070114 | 11 | 276 | 0.0 | 3.2 | 0.00 | 0.46 | 0.46 | 97 | 1003.9 |
| 20260506062051 | 11 | 72 | 3.2 | 4.8 | 0.05 | 0.46 | 0.46 | 97 | 1003.8 |
| 20260506061546 | 11 | 66 | 0.0 | 3.2 | 0.13 | 0.46 | 0.46 | 97 | 1003.9 |
| 20260506061044 | 11 | 85 | 4.8 | 6.4 | 0.36 | 0.46 | 0.46 | 97 | 1003.3 |
| 20260506060543 | 11 | 89 | 4.8 | 8.0 | 0.30 | 0.43 | 0.43 | 97 | 1003.7 |
| 20260506051011 | 11 | 314 | 0.0 | 8.0 | 0.00 | 0.10 | 0.10 | 94 | 1004.0 |
| 20260506050509 | 11 | 34 | 3.2 | 6.4 | 0.00 | 0.10 | 0.10 | 94 | 1004.0 |
| 20260506044959 | 12 | 125 | 1.6 | 4.8 | 0.05 | 0.10 | 0.10 | 92 | 1004.0 |
| 20260506044458 | 12 | 288 | 6.4 | 6.4 | 0.05 | 0.10 | 0.10 | 92 | 1004.0 |
| 20260506043954 | 12 | 284 | 4.8 | 11.3 | 0.00 | 0.10 | 0.10 | 92 | 1003.9 |
| 20260506043451 | 12 | 214 | 3.2 | 14.5 | 0.18 | 0.10 | 0.10 | 91 | 1003.7 |
| 20260506042949 | 12 | 276 | 14.5 | 17.7 | 0.36 | 0.10 | 0.10 | 92 | 1003.8 |
| 20260506042448 | 13 | 267 | 12.9 | 19.3 | 0.18 | 0.05 | 0.05 | 93 | 1004.2 |
| 20260506041946 | 12 | 280 | 14.5 | 24.1 | 0.13 | 0.03 | 0.03 | 97 | 1003.6 |
| 20260506041443 | 12 | 277 | 6.4 | 9.7 | 0.13 | 0.03 | 0.03 | 96 | 1003.7 |
| 20260506040941 | 12 | 334 | 0.0 | 4.8 | 0.00 | 0.00 | 0.00 | 96 | 1003.1 |
| 20260506040438 | 12 | 277 | 0.0 | 3.2 | 0.00 | 0.00 | 0.00 | 96 | 1003.0 |
| 20260506035934 | 12 | 304 | 0.0 | 3.2 | 0.00 | 0.30 | 0.30 | 96 | 1002.9 |
| 20260506035431 | 12 | 296 | 0.0 | 3.2 | 0.00 | 0.30 | 0.30 | 96 | 1002.6 |
| 20260506034928 | 12 | 339 | 1.6 | 3.2 | 0.00 | 0.30 | 0.30 | 95 | 1002.7 |
| 20260506034425 | 11 | 325 | 1.6 | 3.2 | 0.00 | 0.30 | 0.30 | 95 | 1002.6 |
| 20260506033922 | 12 | 315 | 0.0 | 3.2 | 0.00 | 0.30 | 0.30 | 95 | 1002.5 |
| 20260506033420 | 12 | 95 | 0.0 | 3.2 | 0.00 | 0.30 | 0.30 | 95 | 1002.2 |
| 20260506032917 | 12 | 322 | 1.6 | 3.2 | 0.00 | 0.30 | 0.30 | 94 | 1002.6 |
| 20260506032414 | 11 | 165 | 0.0 | 1.6 | 0.00 | 0.30 | 0.30 | 94 | 1002.5 |
| 20260506031910 | 12 | 60 | 0.0 | 3.2 | 0.00 | 0.30 | 0.30 | 93 | 1002.3 |
| 20260506031407 | 12 | 53 | 0.0 | 3.2 | 0.00 | 0.30 | 0.30 | 93 | 1002.6 |
| 20260506030905 | 12 | 63 | 3.2 | 3.2 | 0.00 | 0.30 | 0.30 | 93 | 1002.2 |
| 20260506030403 | 12 | 64 | 1.6 | 3.2 | 0.00 | 0.30 | 0.30 | 93 | 1002.3 |
| 20260506025859 | 12 | 64 | 1.6 | 1.6 | 0.00 | 0.30 | 0.30 | 93 | 1002.4 |
| 20260506025356 | 12 | 38 | 0.0 | 3.2 | 0.00 | 0.30 | 0.30 | 93 | 1002.6 |
| 20260506024853 | 12 | 282 | 0.0 | 3.2 | 0.00 | 0.30 | 0.30 | 93 | 1002.7 |
| 20260506024350 | 12 | 73 | 0.0 | 3.2 | 0.00 | 0.30 | 0.30 | 93 | 1002.4 |
| 20260506023846 | 12 | 80 | 0.0 | 3.2 | 0.00 | 0.30 | 0.30 | 93 | 1002.5 |
| 20260506023343 | 11 | 80 | 1.6 | 3.2 | 0.00 | 0.30 | 0.30 | 94 | 1002.3 |
| 20260506022840 | 11 | 96 | 1.6 | 1.6 | 0.00 | 0.30 | 0.30 | 94 | 1002.2 |
| 20260506022337 | 11 | 56 | 1.6 | 3.2 | 0.00 | 0.30 | 0.30 | 94 | 1002.4 |
| 20260506021835 | 11 | 14 | 0.0 | 0.0 | 0.00 | 0.30 | 0.30 | 94 | 1002.4 |
| 20260506021332 | 11 | 309 | 0.0 | 0.0 | 0.00 | 0.30 | 0.30 | 93 | 1002.3 |
| 20260506020828 | 12 | 55 | 0.0 | 0.0 | 0.00 | 0.30 | 0.30 | 93 | 1002.2 |
| 20260506020327 | 12 | 69 | 0.0 | 1.6 | 0.00 | 0.30 | 0.30 | 92 | 1002.4 |
| 20260506015824 | 12 | 358 | 1.6 | 3.2 | 0.00 | 0.30 | 0.30 | 93 | 1002.1 |
| 20260506015321 | 12 | 319 | 1.6 | 1.6 | 0.00 | 0.30 | 0.30 | 92 | 1002.1 |
| 20260506014817 | 12 | 304 | 0.0 | 0.0 | 0.00 | 0.30 | 0.30 | 92 | 1002.0 |
| 20260506014314 | 12 | 287 | 0.0 | 3.2 | 0.00 | 0.30 | 0.30 | 91 | 1001.9 |
| 20260506013811 | 12 | 115 | 1.6 | 3.2 | 0.00 | 0.30 | 0.30 | 91 | 1002.1 |
| 20260506013309 | 12 | 63 | 0.0 | 0.0 | 0.00 | 0.30 | 0.30 | 90 | 1002.0 |
| 20260506012805 | 13 | 108 | 0.0 | 3.2 | 0.00 | 0.30 | 0.30 | 89 | 1002.1 |
| 20260506012307 | 13 | 29 | 0.0 | 1.6 | 0.00 | 0.30 | 0.30 | 89 | 1001.9 |
| 20260506011759 | 13 | 297 | 1.6 | 3.2 | 0.00 | 0.30 | 0.30 | 87 | 1002.0 |
| 20260506011255 | 13 | 135 | 0.0 | 1.6 | 0.00 | 0.30 | 0.30 | 86 | 1002.0 |
| 20260506010754 | 14 | 326 | 0.0 | 1.6 | 0.00 | 0.30 | 0.30 | 83 | 1001.9 |
| 20260506010251 | 14 | 69 | 0.0 | 4.8 | 0.00 | 0.30 | 0.30 | 83 | 1001.8 |
| 20260506005749 | 15 | 81 | 4.8 | 6.4 | 0.00 | 0.30 | 0.30 | 80 | 1001.7 |
| 20260506005245 | 15 | 47 | 3.2 | 3.2 | 0.00 | 0.30 | 0.30 | 75 | 1001.7 |
| 20260506004740 | 16 | 79 | 4.8 | 4.8 | 0.00 | 0.30 | 0.30 | 70 | 1001.5 |
| 20260506004239 | 17 | 287 | 1.6 | 3.2 | 0.00 | 0.30 | 0.30 | 68 | 1001.9 |
| 20260506003734 | 16 | 80 | 0.0 | 9.7 | 0.00 | 0.30 | 0.30 | 66 | 1001.6 |
| 20260506003231 | 17 | 56 | 6.4 | 6.4 | 0.00 | 0.30 | 0.30 | 68 | 1001.7 |
| 20260506002727 | 17 | 117 | 4.8 | 4.8 | 0.00 | 0.30 | 0.30 | 64 | 1001.8 |
| 20260506002223 | 17 | 221 | 8.0 | 14.5 | 0.00 | 0.30 | 0.30 | 62 | 1001.6 |
| 20260506001719 | 17 | 278 | 4.8 | 8.0 | 0.00 | 0.30 | 0.30 | 62 | 1001.5 |
| 20260506001217 | 17 | 269 | 8.0 | 9.7 | 0.00 | 0.30 | 0.30 | 63 | 1001.3 |
| 20260506000713 | 17 | 230 | 12.9 | 14.5 | 0.00 | 0.30 | 0.30 | 63 | 1001.3 |
| 20260506000212 | 17 | 276 | 16.1 | 19.3 | 0.00 | 0.30 | 0.30 | 63 | 1001.1 |
| 20260505235708 | 17 | 259 | 9.7 | 17.7 | 0.00 | 0.30 | 0.30 | 64 | 1001.5 |
| 20260505235206 | 17 | 285 | 6.4 | 9.7 | 0.00 | 0.30 | 0.30 | 64 | 1001.3 |
| 20260505234703 | 17 | 261 | 3.2 | 12.9 | 0.00 | 0.30 | 0.30 | 64 | 1001.4 |
| 20260505234200 | 17 | 251 | 8.0 | 16.1 | 0.00 | 0.30 | 0.30 | 63 | 1001.3 |
| 20260505233657 | 17 | 254 | 6.4 | 12.9 | 0.00 | 0.30 | 0.30 | 65 | 1001.3 |
| 20260505233155 | 17 | 298 | 11.3 | 16.1 | 0.00 | 0.30 | 0.30 | 66 | 1000.9 |
| 20260505232652 | 17 | 268 | 8.0 | 14.5 | 0.00 | 0.30 | 0.30 | 69 | 1001.0 |
| 20260505232150 | 17 | 273 | 6.4 | 9.7 | 0.00 | 0.30 | 0.30 | 69 | 1000.7 |